Wind_Speed
21 20 20 20 20 20 20 21 21 21 21 22 22 22 22 21 21 21 20 20 19 19 18 18 17 17 17 17 16 16 16 16 15 16 16 16 17 17 17 17 17 17 17 17 17 17 17 17 17 17 18 18 18 19 19 19 19 19 19 18 18 18 17 17 17 16 17 16 15 16 17 16 16 17 18 17 16 15 15 15 15 16 16 16 16 15 16 18
24 24 23 23 22 22 22 22 22 21 21 21 21 22 21 21 21 21 21 21 21 21 20 20 20 20 19 19 19 19 19 19 18 18 18 18 19 19 19 19 19 20 20 20 19 19 19 19 19 18 18 19 19 19 20 20 20 21 20 20 20 20 19 19 19 18 18 18 17 17 17 18 17 16 18 18 17 17 15 16 15 15 15 15 16 15 16 18
27 27 26 26 25 25 25 24 24 24 24 23 23 23 23 23 23 23 23 23 24 23 23 23 23 23 23 22 22 22 22 22 21 21 21 21 21 21 21 21 22 22 22 22 22 22 22 21 21 21 20 20 20 20 21 21 21 21 21 21 21 21 21 20 20 20 19 19 19 18 18 19 18 17 18 19 18 18 16 17 16 16 15 15 16 15 15 17
30 30 29 29 29 28 28 27 27 27 26 26 26 26 26 26 26 26 27 27 27 27 27 27 27 26 26 26 25 25 25 24 24 24 24 24 24 24 24 24 24 24 24 24 25 25 25 24 24 24 23 23 22 22 22 22 22 22 22 22 22 22 22 21 21 21 20 20 20 20 19 19 19 18 19 20 20 18 16 18 18 17 16 15 16 16 15 17
32 32 32 32 32 31 31 31 30 30 30 29 29 29 29 30 30 30 30 30 30 30 30 30 30 30 30 29 29 28 28 27 27 27 27 27 27 27 26 26 26 26 26 27 27 27 27 27 27 27 26 26 25 25 24 24 24 23 23 23 23 23 23 23 23 23 22 22 22 21 20 20 20 19 20 21 22 20 16 18 19 17 17 15 16 17 17 17
34 34 34 34 34 34 34 33 33 33 33 33 33 33 33 33 33 33 33 33 33 33 33 33 33 33 33 33 32 32 31 31 30 29 29 30 29 29 29 29 29 29 29 29 30 30 30 30 30 29 29 29 29 28 27 27 27 25 25 25 24 24 25 24 24 24 24 24 24 23 22 22 21 20 21 22 24 23 18 19 20 17 17 16 16 18 18 19
35 35 36 36 36 36 36 36 35 35 35 35 35 35 36 36 36 36 36 36 36 36 36 36 36 36 36 35 35 34 33 34 34 32 32 32 32 31 31 31 31 31 31 31 32 32 32 32 32 32 32 32 32 31 30 29 29 28 27 28 26 26 27 26 26 26 26 25 25 25 25 24 22 20 21 23 25 24 21 21 21 19 18 18 18 18 19 20
35 35 36 36 36 37 37 37 37 37 37 37 37 37 38 38 38 38 38 38 38 38 38 38 38 38 38 38 37 36 34 35 36 35 34 34 34 33 33 33 33 33 33 33 33 33 34 33 34 34 34 34 34 33 33 32 32 31 30 30 29 28 29 29 28 28 28 28 27 27 26 26 25 21 22 25 25 24 23 22 21 21 20 19 19 20 20 21
34 34 34 35 35 36 36 37 37 37 38 38 38 39 39 39 40 40 40 40 40 40 40 40 40 40 40 40 39 37 36 37 37 36 36 35 35 35 34 34 35 35 35 35 35 35 35 35 35 35 35 35 35 35 35 34 34 34 33 32 31 31 31 31 29 30 30 29 29 29 28 28 27 23 22 26 26 24 23 22 21 22 22 22 21 21 22 23
33 33 34 34 34 35 35 35 36 36 37 37 38 38 39 40 40 41 41 41 42 42 42 42 42 42 41 41 41 37 37 39 39 38 38 37 36 36 35 36 36 36 36 36 36 36 36 36 37 37 37 37 37 37 37 36 36 36 36 35 34 33 34 33 32 32 32 31 31 31 30 28 28 24 23 26 27 25 24 24 23 23 24 25 23 23 23 24
35 35 34 34 35 35 35 35 35 35 36 36 37 37 37 38 39 40 40 41 42 42 42 43 43 43 43 43 41 38 39 41 40 39 39 38 38 37 36 37 37 37 37 37 37 37 38 38 38 39 39 38 38 38 38 37 38 39 38 37 36 36 37 35 34 34 35 33 33 34 33 30 28 26 24 26 27 27 28 27 26 26 26 27 27 25 25 26
36 36 36 36 36 36 36 36 36 36 36 36 37 37 37 37 38 39 39 40 40 41 42 42 43 43 43 43 40 39 40 41 41 41 40 40 39 38 38 38 38 38 38 38 37 38 39 39 39 40 40 39 39 39 39 38 39 40 40 40 38 38 39 37 35 35 35 36 35 37 38 32 29 29 27 28 28 29 31 30 29 30 29 30 30 29 28 28
37 37 37 37 37 38 38 38 38 37 37 37 38 38 38 37 38 39 39 39 40 40 41 41 42 42 43 41 38 39 40 40 41 41 41 41 40 39 39 39 38 38 38 39 38 38 39 40 40 40 40 40 39 39 40 40 40 40 41 42 39 40 40 37 37 36 35 36 36 40 42 35 30 32 33 30 29 29 32 32 32 32 32 32 32 31 30 30
39 39 39 39 39 39 39 39 39 38 38 38 39 39 39 38 38 38 39 40 40 40 41 42 42 43 43 40 37 38 39 40 41 41 41 42 41 40 39 39 39 39 39 39 39 39 40 40 41 41 40 39 39 40 41 41 41 40 42 42 41 43 43 38 38 38 38 38 37 41 44 39 33 34 37 35 32 31 31 32 33 34 34 35 35 34 33 33
41 41 41 40 40 40 40 40 40 40 39 39 40 41 40 39 39 39 39 40 40 41 41 42 43 44 45 41 37 38 39 40 41 41 42 42 40 39 39 40 40 40 40 40 40 40 40 40 41 41 40 38 38 41 42 42 41 40 42 42 41 45 45 40 39 39 41 41 40 42 44 42 37 35 37 39 37 35 32 32 33 34 35 36 36 35 35 35
41 41 41 41 41 41 41 41 41 41 40 40 41 42 42 41 40 40 40 40 40 41 42 43 43 45 47 42 38 39 40 41 42 42 42 41 40 39 39 40 40 40 40 40 40 40 40 41 41 41 40 38 38 41 42 42 38 38 43 44 43 45 45 42 41 40 41 44 43 43 43 42 40 37 37 38 39 38 35 33 33 33 34 36 38 36 35 36
41 41 41 42 42 42 42 42 42 42 42 41 42 43 44 44 43 42 42 41 41 41 42 44 44 46 47 43 40 40 39 41 43 42 41 41 39 38 39 39 40 40 40 40 40 40 40 41 41 41 40 38 38 41 43 41 37 38 44 46 44 44 44 43 41 41 42 44 45 45 44 41 39 39 38 37 38 38 37 36 34 34 34 36 39 38 37 37
42 42 42 42 42 42 42 42 43 43 42 43 43 43 45 45 45 45 44 43 43 43 43 45 46 47 47 44 43 42 41 42 43 42 42 41 39 39 39 39 39 39 40 40 39 40 41 41 42 42 39 37 37 39 41 40 38 40 43 45 46 44 44 42 41 43 44 45 47 47 45 41 38 39 38 35 36 37 36 36 35 34 34 35 38 39 38 38
44 44 43 43 43 43 43 43 43 43 43 43 44 44 45 47 48 48 47 45 45 45 45 47 47 47 47 44 43 43 43 43 43 43 42 41 40 40 39 39 39 39 40 40 39 41 41 42 44 42 36 33 35 37 40 41 40 41 42 44 46 45 44 40 40 45 45 47 49 48 48 44 39 38 37 34 35 36 35 35 36 35 34 35 36 38 39 40
46 46 46 45 45 45 45 44 44 44 44 44 44 45 46 48 49 50 50 49 48 47 48 50 49 48 47 46 44 44 44 45 45 44 42 42 41 41 40 40 40 40 40 40 41 43 42 44 45 39 32 31 35 38 40 41 40 41 42 43 45 45 43 37 39 45 46 48 49 46 49 48 41 37 36 34 33 34 34 35 36 35 34 34 35 37 39 41
49 48 48 47 47 47 46 45 45 44 45 45 46 47 48 49 51 52 53 51 50 50 50 51 53 51 48 48 47 45 45 45 44 43 43 43 43 43 41 41 42 41 39 41 45 45 43 46 44 36 32 33 36 39 41 41 40 41 42 43 43 44 41 37 39 44 45 49 50 47 50 50 43 38 36 34 33 32 32 34 35 33 32 32 33 36 38 39
51 50 50 50 49 49 48 46 45 45 46 47 47 49 50 51 53 54 55 55 52 50 51 51 53 54 51 50 49 47 47 46 43 42 42 44 45 44 43 44 45 42 42 45 47 46 48 49 43 36 35 37 38 39 41 42 41 42 43 45 46 43 41 40 41 43 45 49 50 49 52 52 45 39 35 33 33 33 33 33 31 29 29 29 32 37 37 37
51 51 51 51 50 50 49 48 47 48 49 50 51 51 52 53 55 56 58 59 56 52 53 52 52 54 53 53 51 49 49 46 43 41 40 41 42 44 46 47 46 44 47 49 46 47 51 51 45 40 39 40 41 41 42 43 43 44 46 48 49 43 42 44 44 45 46 48 50 50 53 53 45 39 34 31 32 33 32 31 27 27 28 29 33 37 36 36
52 52 51 51 51 52 52 51 51 52 53 54 54 55 55 55 56 58 59 62 62 58 54 52 54 55 53 53 53 51 50 46 45 42 38 37 38 41 44 47 49 49 50 49 48 51 53 52 50 46 42 43 44 44 45 44 43 46 49 50 48 44 44 46 46 49 50 49 50 50 55 53 43 37 33 29 30 30 30 29 28 28 29 30 32 33 34 36
55 54 53 53 53 54 54 55 55 57 57 57 57 57 56 56 57 58 60 63 65 63 57 55 56 56 54 53 52 50 50 49 46 42 38 38 38 38 40 44 49 52 50 49 52 54 55 54 52 48 46 45 46 47 47 46 46 49 51 49 47 45 46 47 48 52 54 53 51 52 56 53 43 37 33 29 29 29 28 29 28 28 28 29 30 31 33 35
57 57 56 56 56 56 58 59 59 60 59 58 57 56 56 56 56 57 59 62 66 65 61 58 57 57 54 52 50 50 51 49 45 43 42 41 40 39 40 42 45 48 49 50 53 57 57 55 52 49 48 48 49 50 47 45 48 51 51 48 46 46 48 49 49 53 56 55 54 56 58 55 47 39 36 35 33 31 29 28 27 27 28 29 31 32 34 35
55 56 57 57 58 59 60 60 60 59 57 56 55 55 54 54 55 56 56 61 66 65 64 62 59 57 53 51 50 51 52 49 45 45 44 43 43 42 43 43 43 44 46 49 54 56 55 55 53 51 50 51 52 51 46 44 49 52 51 49 49 49 50 51 51 52 55 56 57 59 58 58 52 43 40 41 40 37 33 30 29 28 28 29 32 36 38 37
54 54 55 55 56 57 58 58 57 55 54 54 53 53 53 53 53 54 54 60 67 66 64 63 60 55 53 51 50 50 50 47 46 47 46 46 46 45 45 45 45 46 46 49 53 53 52 54 54 53 53 54 53 50 48 47 51 53 52 52 52 52 52 52 52 53 55 57 60 60 57 58 56 49 48 49 46 42 37 33 33 31 29 30 33 38 42 40
55 55 54 54 54 54 55 55 55 54 53 53 52 52 52 52 52 52 54 62 68 66 62 61 59 57 54 52 50 48 46 46 46 47 46 46 47 46 46 45 45 47 49 50 52 51 52 53 53 54 55 55 54 53 52 52 53 53 53 54 54 54 53 53 54 54 56 59 61 60 56 58 59 53 52 53 48 45 43 40 39 37 34 32 32 36 41 41
55 55 55 54 54 54 54 54 54 54 53 53 52 52 51 52 51 52 58 66 67 64 60 58 58 59 56 53 52 50 47 46 46 46 46 47 47 47 48 47 46 47 49 51 52 50 50 51 53 53 52 52 54 54 54 54 54 54 54 55 55 55 54 55 56 57 60 62 60 58 57 59 61 56 52 53 50 49 49 47 47 45 40 33 31 33 36 39
57 57 56 56 55 55 55 54 55 55 55 54 53 53 53 53 52 56 64 67 64 62 60 59 58 58 56 55 55 54 51 48 46 46 47 47 47 48 49 49 48 48 49 50 50 48 49 51 52 51 51 51 51 52 52 54 54 54 54 54 54 55 56 58 59 59 63 63 59 58 58 61 64 59 56 55 53 52 51 52 54 50 44 35 30 30 30 31
58 58 57 56 55 55 54 55 55 55 55 56 56 56 55 55 57 62 66 63 61 63 60 58 58 57 57 57 56 56 54 52 50 48 47 47 48 48 49 51 50 51 51 50 50 50 51 51 51 52 51 50 50 50 51 51 52 52 53 53 54 56 58 60 61 62 64 63 59 59 62 66 65 60 57 56 55 55 54 56 60 55 47 37 29 27 28 30
57 57 57 57 55 55 54 55 56 56 56 57 58 58 57 58 62 64 63 60 60 63 61 59 59 57 58 58 57 57 57 56 54 51 50 49 49 48 49 50 51 51 51 51 52 54 55 54 53 53 51 49 50 50 51 50 50 51 53 54 54 56 59 61 62 64 64 63 60 62 66 67 63 58 57 56 55 57 57 56 60 59 51 41 33 30 32 34
57 58 58 58 57 56 55 55 56 56 57 58 59 59 59 61 61 59 61 60 60 62 62 60 60 59 59 59 59 60 60 59 58 57 57 55 54 52 49 48 49 50 51 52 53 54 56 56 55 55 53 52 52 51 50 51 52 53 52 53 57 59 60 60 61 63 64 64 62 65 68 64 60 57 56 56 56 57 57 55 55 57 53 47 39 33 31 32
61 60 60 60 59 59 58 57 57 57 58 60 62 62 62 61 59 59 62 62 61 63 62 61 61 62 62 61 62 61 61 63 62 62 63 61 59 56 51 49 48 48 49 51 51 52 55 56 55 57 57 55 55 54 53 54 56 56 55 55 57 57 56 58 60 61 63 66 66 67 69 63 60 59 56 58 59 57 57 56 54 54 53 49 41 33 32 34
65 65 65 64 62 61 61 60 59 59 59 62 65 66 62 59 58 61 63 62 63 65 65 65 64 65 66 64 63 62 62 64 64 64 65 65 64 60 57 56 52 51 51 52 53 55 57 57 54 57 58 56 56 56 55 56 57 58 59 59 57 54 54 57 60 60 62 67 67 66 68 65 61 58 55 56 58 57 58 58 57 56 53 48 41 37 37 39
70 69 69 67 65 65 64 62 61 61 62 66 70 67 60 58 58 61 62 61 63 65 66 67 64 64 65 65 63 62 63 63 63 64 65 65 65 61 60 61 58 57 56 56 58 58 60 59 54 54 57 56 57 56 55 56 57 59 58 57 56 57 59 59 61 61 62 67 67 65 68 67 61 58 55 56 57 56 57 59 58 57 54 50 45 42 42 42
74 74 73 70 68 69 68 67 66 65 65 69 73 68 62 60 59 61 62 61 63 66 68 68 65 65 66 66 66 66 68 68 67 67 67 66 66 63 61 63 62 62 61 60 62 61 61 62 56 54 57 57 57 57 57 56 55 54 52 51 54 58 61 62 63 63 63 67 69 65 65 64 60 58 57 59 60 60 60 60 59 58 56 54 50 46 46 45
75 76 76 74 73 72 71 71 70 70 70 71 72 69 65 63 63 64 66 65 65 67 68 69 68 69 70 68 69 70 72 73 72 72 70 68 68 66 64 64 64 64 63 62 64 62 61 61 59 57 57 57 56 58 59 56 52 50 49 50 53 55 59 62 63 63 64 67 69 65 63 63 60 59 60 60 61 63 63 62 62 62 62 60 54 51 51 50
76 77 77 75 75 75 74 73 71 72 75 75 72 68 66 66 68 68 68 68 69 69 70 69 69 71 71 69 69 71 73 74 74 74 74 71 71 70 70 69 68 68 67 66 66 66 64 64 63 61 59 59 60 61 59 55 53 54 55 55 56 57 59 61 62 63 64 67 68 65 65 66 64 64 65 64 65 66 64 62 62 62 65 65 60 57 55 52
76 78 78 76 76 77 76 76 74 72 75 77 74 71 68 67 68 67 67 68 70 70 71 72 73 75 74 73 73 73 75 76 75 74 75 75 74 73 73 73 71 71 71 70 69 69 70 70 68 66 65 67 67 64 63 63 63 64 64 63 62 62 61 62 65 65 66 68 67 65 68 70 69 69 69 68 69 69 66 64 63 63 66 67 63 60 58 54
77 79 78 76 77 78 77 78 78 76 78 80 78 77 75 72 69 66 67 68 70 72 72 74 76 77 78 78 78 78 77 76 74 74 75 76 74 74 74 75 76 76 76 77 75 73 73 74 74 73 73 73 70 68 69 71 71 72 71 69 67 67 66 68 71 69 68 69 67 67 74 75 70 70 70 70 73 74 73 70 67 66 67 67 64 61 57 55
77 78 77 76 77 78 78 79 80 80 83 84 83 80 78 78 75 71 69 69 71 73 74 76 78 79 80 79 79 79 78 75 75 74 74 75 75 75 75 76 77 77 77 78 78 75 73 75 76 77 77 74 72 72 74 75 77 77 75 72 70 70 70 70 71 69 68 69 68 73 81 80 72 70 71 71 74 77 76 73 70 67 66 67 67 62 57 54
78 78 78 77 77 78 80 81 81 82 83 84 84 82 78 79 80 77 75 73 73 75 76 77 78 78 78 77 77 78 77 76 77 75 73 75 76 75 73 73 73 73 73 74 73 71 71 72 73 73 72 71 71 72 75 76 76 75 72 69 67 66 65 65 66 66 68 69 69 76 84 81 74 71 73 73 74 73 72 71 69 66 65 67 66 61 57 54
79 80 79 79 79 80 81 82 82 83 84 84 85 84 81 81 81 79 79 79 78 78 79 79 77 76 73 72 73 75 75 76 77 76 74 73 72 70 67 66 68 68 68 68 68 67 68 70 72 71 70 69 68 69 70 69 69 69 67 65 64 63 62 62 62 65 68 70 72 77 81 79 75 73 74 74 74 72 70 68 67 66 65 63 61 59 59 59
80 81 81 81 81 82 83 82 82 83 84 85 87 87 85 84 81 78 80 83 83 83 83 82 80 77 74 71 71 72 72 73 75 76 76 75 74 71 66 62 62 62 62 62 61 62 65 67 67 68 69 69 69 68 65 64 67 68 66 65 64 64 63 63 66 69 71 74 78 80 80 80 78 74 72 71 70 68 66 65 64 62 59 57 59 63 65 65
81 82 82 82 83 83 84 84 84 84 84 85 87 88 86 85 84 81 81 83 84 85 88 88 84 81 79 75 73 72 71 71 71 73 74 75 75 74 71 67 64 63 61 58 56 58 62 62 59 59 62 63 63 63 61 61 65 67 67 66 65 66 66 67 72 74 73 78 83 80 77 79 77 70 67 66 64 63 62 60 58 56 55 58 63 66 67 67
81 82 81 82 84 85 85 85 86 86 86 86 87 88 87 87 87 86 84 83 84 86 90 93 91 88 84 79 77 77 75 72 72 73 75 76 76 74 73 71 68 64 61 59 58 59 63 63 58 57 61 62 61 61 60 60 61 62 64 65 65 66 68 70 73 73 71 76 81 76 73 75 72 67 64 61 60 61 60 58 58 58 61 62 63 64 66 67
81 82 82 82 84 85 85 85 86 87 87 87 86 86 87 87 87 87 85 85 87 88 90 94 95 93 91 88 86 87 84 80 79 77 75 74 74 73 72 71 69 66 63 63 63 63 65 66 59 57 61 62 62 63 62 63 64 62 61 61 61 62 65 69 72 72 71 75 76 73 73 73 70 66 64 62 61 62 62 62 64 64 64 62 62 64 66 66
80 81 82 83 84 85 85 85 85 86 87 86 85 84 85 86 87 87 86 87 88 89 91 94 95 94 95 97 97 97 95 92 90 86 82 82 82 81 79 77 74 73 73 73 71 70 70 67 58 56 62 64 62 63 65 66 68 67 65 63 60 61 65 68 68 67 68 72 73 72 74 76 74 70 67 66 67 68 68 68 68 67 67 66 66 67 67 66
79 80 81 83 84 84 84 84 85 86 87 87 87 87 85 86 86 86 86 87 86 86 89 92 94 95 97 99 100 100 99 96 96 95 93 92 91 90 90 88 85 83 83 81 80 78 77 73 68 67 74 75 68 66 70 73 74 77 75 68 64 64 66 66 63 63 66 70 73 76 78 79 76 71 70 70 71 70 69 68 68 68 69 68 66 65 64 62
79 80 81 83 85 84 83 84 85 86 88 87 87 87 87 86 85 85 87 89 87 86 85 85 85 89 93 96 98 99 96 92 91 91 89 86 83 82 84 86 88 90 91 91 90 90 89 88 86 86 91 91 85 82 84 84 85 88 83 72 67 67 67 68 68 67 68 70 74 77 79 77 74 70 69 68 66 65 63 62 63 65 66 64 60 58 56 53
Wind_Direction
262 263 264 265 266 267 268 269 270 271 272 273 275 277 278 280 282 283 284 286 287 287 288 288 289 290 291 292 293 293 293 292 292 293 293 296 297 299 301 303 304 305 305 306 307 307 308 309 310 310 311 311 311 312 313 313 315 317 319 321 322 323 323 323 323 323 322 321 321 318 315 313 312 311 310 313 314 316 317 316 317 315 315 313 309 310 304 301
261 262 263 264 265 266 266 267 268 269 270 272 273 275 276 277 278 280 281 282 283 285 286 287 287 288 288 289 289 290 291 290 291 290 291 292 293 294 295 296 297 298 299 299 301 301 302 303 304 305 306 307 308 309 309 310 311 312 315 317 319 320 320 322 322 322 322 321 321 320 318 316 315 312 308 309 309 310 312 310 311 312 314 314 312 312 306 304
261 262 262 263 264 264 265 266 267 268 269 270 271 273 274 275 277 278 279 280 281 282 283 283 284 285 285 285 286 286 287 288 288 288 289 290 290 290 290 290 291 292 293 293 295 297 298 299 300 300 301 302 303 304 305 306 308 309 312 313 315 316 316 319 318 319 319 318 319 319 319 317 317 316 309 308 308 308 309 306 306 307 310 311 310 313 308 306
260 261 262 263 264 264 265 265 266 267 267 269 270 271 272 274 275 276 278 279 280 280 281 282 282 282 283 283 283 284 285 285 286 287 288 288 288 287 287 287 288 289 289 290 291 293 294 295 296 297 297 298 299 300 301 301 303 306 308 310 311 312 312 314 314 315 315 315 316 316 317 315 317 318 311 310 307 308 310 304 305 305 306 308 306 308 307 305
261 261 262 263 264 264 264 265 266 266 267 268 268 270 271 272 273 274 275 277 278 279 280 281 282 282 283 283 283 283 284 285 285 286 287 287 286 286 286 286 286 287 287 288 289 291 292 293 293 294 294 295 296 298 298 299 299 301 304 305 307 308 308 310 311 311 312 313 313 313 315 312 315 316 312 311 306 310 315 304 304 305 304 307 304 305 306 304
261 262 263 264 264 265 265 266 266 267 267 267 268 269 269 270 271 272 273 274 276 277 278 279 280 281 282 283 284 284 285 285 285 285 285 285 285 286 286 286 286 286 286 287 288 289 290 291 291 292 292 293 294 295 296 297 297 298 300 300 302 303 303 305 306 307 308 309 310 311 312 311 313 314 312 309 305 310 315 304 304 305 304 306 304 304 305 305
262 263 264 265 265 266 266 267 267 268 268 268 269 269 269 270 270 271 272 272 273 274 275 277 278 278 279 280 282 283 285 285 284 284 284 284 284 285 285 286 285 285 285 285 286 287 287 289 290 290 291 292 292 293 294 294 294 295 296 296 298 300 300 301 302 303 304 305 305 307 309 309 311 314 311 304 303 309 312 306 305 306 306 306 305 305 304 304
263 264 265 266 267 267 268 269 269 269 269 270 270 270 270 270 271 271 272 272 273 274 275 275 276 277 277 278 279 280 282 282 282 283 283 283 283 283 284 284 284 284 285 285 285 285 286 287 288 288 289 290 291 292 292 292 292 293 294 294 296 298 298 298 299 300 300 301 302 302 304 305 307 314 310 302 303 308 307 305 305 307 308 307 307 308 306 305
265 265 266 266 267 268 269 270 270 271 272 272 272 272 272 272 272 272 272 272 273 273 274 275 275 276 276 277 277 279 280 280 281 281 281 282 282 282 283 283 283 284 284 285 285 285 286 287 287 288 288 288 290 290 290 291 292 291 291 292 293 294 294 295 297 298 297 298 299 298 299 300 303 310 308 302 304 306 303 302 303 307 308 307 307 308 308 307
266 267 267 267 268 268 269 270 270 271 272 273 273 273 274 274 274 274 273 273 273 274 274 274 275 275 275 276 276 278 279 278 280 281 281 281 281 281 282 283 283 284 284 285 285 286 286 286 287 287 287 288 288 288 289 290 290 289 289 290 291 291 291 292 295 295 295 295 296 295 295 296 299 305 305 301 304 304 300 299 300 303 304 304 305 305 305 305
267 267 268 268 269 269 270 270 271 271 272 272 273 273 274 275 275 275 275 275 275 275 275 275 275 275 275 276 277 278 278 278 279 279 279 280 280 281 281 282 283 283 284 284 285 286 286 286 286 286 286 287 287 287 288 289 289 289 289 288 289 290 289 290 292 293 293 293 294 293 291 292 296 300 300 298 301 301 298 298 298 298 299 300 301 301 301 301
266 266 267 268 269 270 270 271 271 271 272 272 273 273 273 274 275 275 276 276 276 277 277 277 277 277 277 277 279 279 278 279 279 279 279 279 279 280 281 281 282 282 283 283 284 285 285 285 285 285 285 286 286 287 287 287 287 288 288 287 287 287 286 288 289 290 292 292 292 290 287 289 294 295 294 295 298 298 296 296 296 296 296 296 296 297 297 297
266 266 267 267 268 269 269 270 271 271 272 273 273 273 273 273 274 275 276 277 277 277 277 277 278 278 278 279 281 281 281 281 280 280 279 279 279 280 280 281 281 281 282 282 282 282 283 283 283 284 285 286 287 288 287 287 286 287 287 286 286 284 283 285 286 286 287 288 289 287 285 287 291 290 289 290 292 293 293 294 295 295 294 294 294 295 295 294
267 267 268 268 268 269 269 269 270 271 271 272 273 273 273 273 274 275 276 277 277 278 278 278 278 278 278 279 281 281 281 281 281 281 280 280 280 281 281 281 281 281 281 281 281 281 281 282 283 284 285 286 287 288 287 286 286 286 286 286 286 283 282 283 284 284 284 283 283 284 283 285 287 286 286 287 286 286 289 291 292 292 292 292 292 293 293 292
266 267 268 268 269 269 270 270 270 271 271 271 272 273 273 273 273 274 275 276 277 278 278 278 278 278 277 278 280 280 280 280 281 281 280 282 282 282 282 282 281 281 281 281 281 281 282 283 283 284 285 286 288 288 287 286 286 288 287 285 284 282 283 283 282 282 282 282 281 280 282 283 283 283 284 285 285 284 283 285 287 287 288 289 289 290 292 292
265 266 266 267 268 268 269 270 270 271 271 271 272 272 273 273 273 273 274 275 276 277 278 278 278 278 278 278 278 278 278 279 279 280 281 282 283 283 283 282 282 282 281 281 282 282 283 283 284 284 285 287 288 288 287 286 289 290 286 284 283 283 284 284 283 283 282 281 280 279 280 281 283 283 281 282 284 284 282 282 284 284 285 285 285 285 286 289
265 265 265 265 266 267 267 268 269 270 270 271 271 272 272 273 273 272 273 274 275 276 277 278 279 278 278 279 278 276 277 277 278 280 281 281 282 282 282 282 282 282 282 282 282 283 283 283 284 284 285 288 289 289 288 289 290 286 283 284 284 284 284 285 286 285 283 281 280 279 279 279 281 282 281 282 283 283 282 282 283 283 283 283 283 283 283 284
266 266 266 266 266 266 266 267 268 269 269 270 270 271 272 272 272 271 272 272 273 275 276 277 278 277 278 279 279 278 277 276 277 278 279 281 282 282 281 282 282 282 282 282 282 283 283 283 282 282 285 289 291 290 288 288 286 282 282 285 285 285 286 288 290 288 286 284 283 282 282 280 279 278 279 280 281 281 281 281 282 281 280 280 282 284 284 283
267 267 267 267 267 267 267 267 268 269 270 270 271 271 272 272 273 273 273 273 273 274 275 275 275 277 279 279 279 279 277 276 276 276 279 281 281 282 282 282 281 281 281 281 282 281 280 280 279 281 288 292 291 287 284 283 283 282 283 283 284 285 286 290 292 288 287 285 283 285 286 284 281 279 280 279 278 279 281 281 280 278 276 276 278 281 282 282
266 266 267 267 267 267 267 268 269 270 270 271 272 272 272 273 273 274 274 273 274 274 274 275 275 275 277 279 279 278 278 276 275 275 278 280 280 280 280 281 281 280 281 282 280 277 277 278 278 283 291 290 285 282 281 282 282 283 283 282 284 285 286 290 287 284 285 284 283 284 284 283 283 283 283 282 279 278 279 279 277 276 275 275 277 278 279 279
265 265 265 266 266 266 266 267 268 269 271 272 273 273 273 274 274 273 273 272 272 272 273 274 275 275 276 277 277 278 278 277 277 277 277 277 277 277 278 280 279 279 280 279 276 276 277 275 278 286 288 282 279 280 281 283 283 283 284 284 283 284 287 288 284 283 284 283 282 283 281 281 282 283 284 285 283 280 277 274 275 277 278 278 277 274 275 278
264 264 264 264 265 265 265 264 266 268 271 272 273 274 274 274 274 274 274 272 271 271 271 272 274 276 276 275 276 277 277 278 281 281 278 276 275 276 277 276 275 277 277 274 274 277 276 275 279 284 281 277 277 279 280 282 283 284 286 286 284 286 290 288 284 283 282 281 282 283 281 281 282 283 284 285 283 280 276 273 274 277 278 276 274 273 276 279
264 264 264 264 264 263 263 262 264 268 271 272 273 274 274 274 273 273 274 274 272 270 269 271 272 273 274 276 277 277 277 280 282 281 281 280 278 276 274 273 274 274 272 272 275 276 275 276 278 278 276 277 278 278 277 277 280 283 284 283 285 289 291 288 286 284 282 282 282 283 282 281 282 284 284 282 280 277 276 277 278 277 275 273 272 276 280 281
264 264 264 263 263 262 261 262 264 268 270 273 273 273 273 273 273 272 273 274 273 271 270 271 271 271 272 274 275 277 279 281 280 281 284 284 282 278 274 274 273 270 270 273 274 272 272 275 276 276 277 277 277 276 275 276 278 280 280 280 284 288 288 286 287 286 284 283 283 284 283 282 283 285 283 280 275 275 276 279 279 277 275 274 274 277 279 279
262 262 262 262 262 262 261 262 265 268 271 272 273 273 272 272 272 272 272 273 273 272 270 269 269 270 271 272 274 277 279 279 280 284 286 285 283 281 278 274 271 270 271 272 271 270 269 270 273 276 277 276 275 274 274 276 278 279 278 280 283 285 284 284 285 285 285 284 285 284 283 284 286 284 284 281 275 274 274 274 274 274 274 275 276 277 277 279
261 261 261 261 261 261 262 263 266 268 270 271 271 270 270 271 271 272 272 273 272 272 271 269 267 268 269 271 275 276 276 278 282 285 286 284 283 281 278 275 273 273 273 272 270 269 269 270 273 275 275 275 274 273 275 278 278 277 277 280 282 282 282 282 282 282 283 285 285 283 283 287 288 287 287 285 281 278 274 272 274 276 278 279 280 280 280 281
261 261 260 261 261 262 263 264 266 267 267 267 268 268 269 269 270 271 273 273 272 273 272 270 269 269 270 272 272 273 275 279 282 282 282 282 281 280 278 277 277 276 275 273 270 269 271 273 274 274 273 273 272 274 277 277 276 276 278 280 280 280 280 280 280 280 281 283 282 281 283 287 291 294 292 288 285 281 279 279 280 280 282 285 286 287 286 285
262 262 262 262 263 263 264 265 265 265 264 265 265 266 267 268 269 271 272 272 272 273 273 274 275 275 275 274 273 274 276 279 279 279 279 280 280 279 279 278 278 276 274 272 272 274 274 274 274 274 273 272 272 274 275 274 275 276 278 279 279 280 280 279 279 279 280 280 278 278 282 285 290 294 293 289 286 286 286 285 283 281 284 288 289 289 289 288
262 263 263 264 265 265 265 266 266 265 264 264 264 265 266 267 268 269 269 268 271 273 275 278 281 281 280 279 279 278 277 277 276 277 278 279 279 278 278 277 277 276 274 273 273 275 276 276 276 275 273 273 274 273 273 273 274 274 275 276 278 278 278 278 278 278 278 276 275 278 282 285 288 290 287 286 288 291 291 289 287 285 286 288 290 289 288 288
262 262 262 262 264 265 266 266 267 266 266 266 265 265 265 265 267 267 265 266 270 274 278 281 281 282 283 284 283 281 278 276 276 276 278 278 278 278 277 276 275 274 274 274 274 275 276 276 276 276 277 276 275 273 272 272 272 273 274 275 276 276 277 277 276 276 275 273 275 280 284 285 286 286 285 286 289 290 291 292 290 289 289 292 294 291 287 289
262 262 262 262 262 263 265 266 267 267 268 267 267 266 265 265 265 264 264 269 274 276 278 279 279 281 284 284 283 282 281 279 277 276 276 277 277 276 276 276 277 276 275 274 275 276 275 274 274 276 277 276 275 275 274 273 272 273 273 274 275 275 275 274 273 273 272 274 278 282 283 282 281 283 287 289 290 291 293 294 291 289 292 297 299 294 288 288
263 263 264 264 264 263 264 264 266 267 268 268 267 266 265 265 264 264 267 272 274 274 276 278 279 281 281 282 282 282 282 281 278 277 275 274 272 271 271 274 276 278 277 276 277 276 273 272 273 273 273 275 277 277 276 274 273 272 271 271 272 272 272 271 271 271 271 275 279 281 281 279 278 281 285 287 291 293 293 293 291 293 296 299 302 297 291 287
264 264 265 265 266 267 266 265 265 265 267 267 267 267 267 266 265 267 270 271 272 275 277 277 278 279 279 281 281 281 282 281 280 278 275 272 269 268 269 271 274 276 278 278 277 275 273 272 272 274 275 276 276 274 274 273 272 270 268 267 267 268 269 270 271 273 274 277 279 279 277 276 279 283 286 287 289 289 288 289 292 295 298 301 305 301 294 288
263 262 263 264 264 266 267 268 268 267 266 265 265 266 265 265 267 270 271 271 272 274 275 276 278 278 279 279 279 280 281 281 280 280 278 275 272 271 269 269 271 274 276 276 274 275 276 275 273 276 276 273 272 272 272 272 271 270 268 265 264 265 266 269 272 275 277 278 278 276 275 277 282 286 288 289 287 286 288 290 291 294 298 303 306 305 299 293
263 261 261 262 262 263 265 267 269 270 269 267 264 262 261 264 267 269 270 271 272 272 273 275 276 276 276 276 277 279 281 282 282 282 281 279 277 276 272 269 270 272 274 274 275 277 279 276 273 275 274 272 271 270 269 269 270 271 270 266 266 268 268 269 272 273 275 276 276 276 276 279 283 285 287 287 286 288 290 291 291 292 296 300 303 304 302 297
265 264 263 263 264 264 264 264 265 267 269 269 266 263 263 266 268 268 269 270 270 271 272 272 271 272 274 274 275 276 278 280 280 280 280 279 278 277 275 275 275 273 273 274 276 277 277 274 272 274 275 273 271 270 268 268 269 270 270 270 273 273 271 269 270 271 271 272 275 278 279 280 282 283 283 282 284 288 289 290 291 292 295 298 299 301 299 296
265 264 264 264 265 265 264 263 263 263 265 266 266 266 267 267 266 267 269 270 270 270 270 270 270 271 272 273 275 275 276 276 275 276 277 277 276 275 275 276 276 276 276 278 278 277 277 275 271 272 275 274 272 270 269 268 267 267 269 273 275 274 272 270 269 270 269 271 275 277 278 280 282 283 284 284 284 285 286 287 288 291 294 295 296 298 297 295
265 264 264 265 265 265 264 263 262 261 262 265 266 265 264 263 263 265 268 270 270 270 271 271 271 270 270 271 273 275 275 275 274 275 276 276 275 274 274 275 276 277 279 280 280 279 278 276 273 273 274 273 272 270 268 266 266 268 271 273 273 272 273 271 269 271 271 271 274 276 277 279 280 282 285 285 285 285 285 286 288 291 294 294 295 297 297 296
264 264 264 264 264 263 262 263 262 260 259 261 263 263 262 262 263 264 267 268 268 268 269 270 271 270 270 270 271 273 274 275 276 276 276 275 275 275 275 276 277 278 279 279 279 279 278 275 272 272 273 271 270 268 266 267 269 272 271 269 268 269 271 271 271 272 272 271 273 275 277 279 280 282 282 282 283 284 285 288 292 295 296 295 296 298 297 296
263 263 263 263 263 262 262 262 262 261 259 258 259 260 261 262 262 263 265 266 266 266 267 268 269 269 270 270 270 272 274 274 275 276 276 275 275 275 275 276 278 279 279 278 277 277 276 273 271 271 269 267 267 266 267 268 269 269 268 267 267 268 269 270 270 271 272 272 273 274 276 278 278 279 279 278 279 280 284 288 291 293 294 295 297 298 297 294
262 262 263 263 262 261 261 261 261 261 261 260 259 258 258 259 260 260 261 263 264 264 265 265 266 267 268 269 270 271 272 273 273 274 274 275 275 275 275 276 277 278 278 278 277 276 276 275 273 270 268 268 269 268 268 267 267 267 267 266 266 267 268 269 270 271 273 272 272 274 275 275 275 275 276 278 279 281 283 285 287 289 290 292 295 295 294 293
261 261 263 263 262 261 261 262 261 261 261 261 261 259 257 256 257 257 259 261 262 262 262 262 264 266 267 268 269 269 270 270 270 271 272 272 273 274 276 277 278 278 278 279 278 277 277 275 272 271 272 272 271 270 268 267 267 266 265 266 266 267 268 269 271 273 273 271 272 273 272 272 273 274 277 280 282 284 284 285 288 290 291 292 292 291 290 290
262 262 262 261 261 262 262 261 262 261 261 262 262 260 258 257 256 256 258 260 262 262 261 261 263 264 265 266 266 266 266 266 267 267 269 271 272 275 278 279 279 279 279 279 279 278 276 273 272 273 274 272 271 270 268 267 267 267 268 270 272 272 272 271 271 272 271 269 271 270 268 271 275 276 278 280 280 282 285 288 290 291 292 292 291 290 291 289
264 264 263 262 261 261 261 262 262 262 263 263 262 261 259 258 257 256 256 257 260 263 263 262 261 260 261 261 261 261 262 263 263 264 266 270 273 276 276 276 276 276 276 276 277 276 274 273 272 272 270 269 269 269 269 269 270 271 273 274 274 273 272 270 269 269 267 266 266 266 266 271 277 279 279 280 280 282 285 288 290 290 290 288 289 292 292 289
263 263 263 263 262 261 261 262 263 263 263 263 263 262 261 259 258 257 256 255 257 261 265 265 263 260 258 257 256 256 258 259 260 262 263 265 268 269 269 270 271 271 271 272 272 272 271 271 270 268 267 266 267 268 270 272 271 271 271 271 269 268 266 266 266 266 266 267 266 265 268 274 278 278 279 281 283 285 286 286 287 287 286 286 289 290 288 286
262 262 262 262 262 262 262 261 262 262 262 263 264 263 262 261 260 258 256 256 256 258 263 266 266 263 260 259 257 256 256 256 258 260 260 260 261 262 262 263 263 262 262 265 268 269 268 268 267 267 267 267 268 268 269 268 268 268 268 267 266 264 262 263 263 264 267 271 270 269 272 277 278 278 280 282 283 283 283 283 282 282 283 284 285 285 284 285
262 262 262 262 261 261 261 261 261 261 261 262 262 263 263 263 262 259 257 256 256 257 260 262 264 264 263 262 261 260 257 256 256 256 258 258 259 258 258 258 259 256 254 257 262 265 265 265 264 265 265 265 266 267 265 263 264 265 265 263 263 262 262 262 264 266 270 272 272 272 274 276 278 281 282 281 280 280 279 278 278 277 277 278 280 281 282 283
263 263 262 262 262 261 261 261 261 262 262 261 261 261 261 261 262 261 260 259 257 256 257 259 259 261 263 263 262 262 260 258 257 257 258 258 257 257 256 255 256 255 254 255 257 260 264 267 267 268 268 266 264 263 261 259 258 257 258 259 261 262 262 264 266 269 271 271 271 274 275 276 279 281 281 280 279 278 276 276 275 274 275 277 279 280 280 281
264 263 263 262 262 261 261 261 262 262 262 263 263 262 262 261 261 262 261 261 259 257 257 258 258 259 261 261 262 262 261 260 259 258 258 258 258 258 258 257 255 255 257 260 261 262 266 271 273 275 275 273 270 268 265 262 258 255 255 258 261 263 263 264 267 269 271 272 274 277 278 277 278 279 279 279 278 276 275 275 277 278 279 280 280 279 278 276
263 263 263 262 262 262 262 262 262 262 262 263 263 263 264 265 264 263 262 261 260 259 259 259 259 259 261 261 262 263 263 262 262 261 259 261 262 262 262 262 260 259 261 264 266 267 269 272 272 273 274 273 272 271 269 268 267 264 260 260 262 262 261 262 266 270 273 274 275 277 277 276 276 278 280 279 279 279 279 281 282 283 282 281 280 277 274 271
263 262 262 262 261 262 263 263 263 262 262 262 263 264 265 265 266 266 265 263 262 261 261 261 261 260 261 262 263 265 266 267 267 266 265 267 268 267 266 266 264 264 265 266 268 269 270 271 271 271 273 273 272 273 273 274 274 273 268 264 262 261 261 265 270 273 274 275 275 275 276 276 278 280 281 281 282 284 285 286 286 285 282 281 278 273 270 269
264 263 262 262 261 261 262 263 262 262 263 263 264 265 264 264 264 265 266 265 265 265 264 263 263 262 262 262 263 265 268 270 271 271 270 271 271 270 270 270 269 269 269 269 270 271 271 272 272 273 275 275 274 275 278 278 277 275 272 269 267 267 268 272 275 276 277 278 279 279 279 281 284 285 285 285 286 286 288 289 287 282 279 275 269 263 264 268
Height
5885 5885 5885 5885 5885 5885 5886 5886 5886 5886 5886 5886 5886 5886 5886 5886 5886 5886 5886 5886 5886 5886 5886 5886 5885 5885 5885 5885 5884 5884 5884 5884 5884 5884 5883 5883 5882 5882 5881 5881 5880 5880 5879 5878 5878 5877 5876 5876 5875 5874 5874 5873 5872 5871 5871 5870 5869 5868 5867 5867 5866 5865 5864 5863 5863 5862 5861 5861 5860 5859 5858 5858 5857 5856 5855 5854 5853 5853 5852 5851 5851 5850 5849 5848 5847 5847 5846 5845
5883 5883 5883 5883 5883 5883 5883 5884 5884 5884 5884 5884 5884 5884 5884 5884 5884 5884 5884 5884 5884 5884 5884 5884 5884 5883 5883 5883 5883 5883 5883 5883 5882 5882 5882 5881 5881 5880 5880 5879 5879 5878 5877 5877 5876 5875 5875 5874 5874 5873 5872 5872 5871 5870 5869 5868 5868 5867 5866 5865 5865 5864 5863 5862 5861 5861 5860 5859 5859 5858 5858 5857 5856 5855 5854 5853 5852 5851 5851 5850 5849 5849 5848 5847 5846 5846 5845 5844
5880 5881 5881 5881 5881 5881 5882 5882 5882 5882 5882 5882 5882 5882 5882 5882 5882 5882 5882 5882 5882 5882 5882 5882 5882 5881 5881 5881 5881 5881 5881 5881 5880 5880 5880 5879 5879 5879 5878 5878 5877 5876 5876 5875 5874 5874 5873 5872 5872 5871 5871 5870 5870 5869 5868 5867 5866 5865 5865 5864 5863 5863 5862 5861 5860 5860 5859 5858 5857 5857 5856 5855 5855 5854 5853 5852 5851 5850 5850 5849 5848 5848 5847 5846 5845 5845 5844 5843
5878 5878 5878 5879 5879 5879 5879 5880 5880 5880 5880 5880 5880 5880 5880 5880 5880 5880 5880 5880 5880 5880 5880 5880 5880 5879 5879 5879 5879 5879 5879 5879 5878 5878 5878 5877 5877 5877 5876 5876 5875 5874 5874 5873 5872 5872 5871 5870 5870 5869 5869 5868 5868 5867 5866 5865 5865 5864 5863 5863 5862 5861 5861 5860 5859 5858 5858 5857 5856 5855 5855 5854 5853 5853 5852 5850 5850 5849 5849 5847 5847 5846 5846 5845 5844 5844 5843 5842
5875 5876 5876 5876 5876 5877 5877 5877 5877 5878 5878 5878 5878 5878 5878 5878 5878 5878 5878 5877 5877 5877 5877 5877 5877 5877 5877 5877 5877 5877 5877 5877 5877 5876 5876 5875 5875 5874 5874 5873 5873 5872 5872 5871 5870 5869 5869 5868 5867 5867 5867 5866 5866 5865 5864 5863 5863 5863 5862 5861 5860 5859 5859 5858 5857 5856 5856 5855 5855 5854 5854 5853 5852 5851 5850 5849 5848 5848 5848 5846 5845 5845 5844 5844 5843 5842 5842 5841
5873 5873 5873 5873 5874 5874 5874 5874 5875 5875 5875 5875 5875 5875 5875 5875 5875 5875 5875 5875 5875 5875 5875 5875 5874 5874 5874 5874 5874 5874 5875 5874 5874 5874 5874 5873 5872 5872 5872 5871 5871 5870 5869 5869 5868 5867 5866 5866 5865 5864 5864 5863 5863 5862 5862 5861 5860 5860 5860 5859 5858 5858 5857 5856 5856 5855 5854 5854 5853 5852 5852 5851 5851 5850 5849 5847 5846 5846 5846 5845 5844 5844 5843 5843 5842 5841 5840 5839
5870 5870 5870 5870 5871 5871 5871 5871 5872 5872 5872 5872 5872 5872 5872 5872 5872 5872 5872 5872 5872 5872 5872 5872 5872 5872 5871 5872 5871 5872 5872 5871 5871 5871 5871 5870 5870 5869 5869 5869 5868 5868 5867 5866 5865 5865 5864 5863 5862 5862 5861 5860 5860 5859 5859 5859 5858 5858 5857 5856 5856 5855 5854 5854 5854 5853 5852 5851 5851 5850 5850 5849 5849 5849 5847 5845 5844 5844 5843 5842 5842 5841 5841 5841 5840 5839 5839 5837
5867 5867 5867 5868 5868 5868 5868 5868 5869 5869 5869 5869 5869 5869 5869 5869 5869 5869 5869 5869 5869 5869 5869 5868 5868 5868 5868 5869 5868 5869 5869 5868 5867 5868 5868 5867 5867 5867 5866 5866 5865 5865 5864 5863 5863 5862 5861 5861 5860 5859 5859 5858 5857 5856 5856 5855 5855 5855 5854 5853 5853 5853 5852 5851 5851 5850 5849 5849 5848 5848 5847 5846 5846 5847 5845 5842 5842 5842 5841 5840 5839 5839 5838 5838 5838 5837 5836 5835
5864 5864 5865 5865 5865 5865 5865 5865 5866 5866 5866 5866 5866 5866 5866 5865 5865 5866 5866 5865 5865 5865 5865 5865 5865 5865 5865 5865 5865 5867 5866 5864 5864 5865 5864 5864 5863 5863 5863 5863 5862 5862 5861 5860 5859 5859 5858 5857 5857 5856 5855 5855 5854 5853 5852 5852 5852 5851 5850 5850 5850 5850 5849 5848 5848 5847 5846 5846 5845 5845 5845 5844 5844 5844 5842 5839 5840 5840 5839 5838 5837 5837 5836 5835 5835 5834 5833 5832
5860 5861 5861 5861 5862 5862 5862 5862 5862 5863 5863 5863 5863 5863 5862 5862 5862 5862 5862 5862 5862 5862 5861 5861 5861 5861 5861 5861 5862 5864 5862 5861 5861 5861 5860 5860 5860 5860 5860 5859 5859 5858 5858 5857 5856 5855 5855 5854 5853 5852 5851 5851 5851 5849 5849 5849 5848 5847 5846 5847 5847 5846 5845 5845 5845 5843 5843 5843 5842 5841 5841 5841 5841 5842 5840 5837 5837 5837 5836 5836 5835 5835 5833 5832 5832 5832 5831 5830
5857 5857 5858 5858 5858 5858 5858 5859 5859 5859 5859 5859 5859 5859 5859 5859 5858 5858 5858 5858 5858 5858 5858 5857 5857 5857 5857 5857 5859 5860 5859 5857 5858 5857 5857 5856 5856 5856 5856 5856 5855 5855 5854 5854 5853 5852 5851 5850 5850 5848 5848 5848 5847 5846 5846 5846 5844 5843 5842 5843 5843 5842 5841 5842 5841 5840 5838 5839 5839 5836 5837 5839 5839 5839 5838 5835 5835 5834 5833 5833 5832 5832 5831 5830 5829 5829 5829 5827
5854 5854 5854 5855 5855 5855 5855 5855 5855 5855 5855 5855 5855 5855 5856 5856 5855 5854 5854 5854 5854 5854 5854 5853 5853 5853 5852 5853 5855 5856 5854 5854 5854 5853 5853 5852 5852 5853 5853 5853 5852 5851 5851 5850 5850 5849 5847 5847 5846 5844 5844 5844 5843 5843 5842 5843 5841 5840 5838 5838 5840 5838 5837 5838 5837 5837 5835 5834 5834 5831 5831 5836 5836 5835 5834 5833 5832 5831 5830 5830 5829 5828 5828 5827 5826 5825 5825 5824
5851 5851 5851 5851 5851 5851 5851 5851 5851 5851 5852 5852 5851 5851 5852 5852 5852 5851 5851 5851 5850 5850 5850 5849 5849 5848 5848 5850 5852 5851 5850 5850 5849 5849 5848 5848 5848 5849 5849 5849 5848 5848 5847 5846 5846 5845 5843 5843 5842 5840 5840 5840 5840 5839 5838 5838 5837 5837 5834 5833 5835 5833 5833 5835 5834 5833 5832 5831 5830 5826 5825 5832 5834 5831 5830 5830 5830 5828 5827 5826 5826 5825 5824 5823 5822 5821 5821 5820
5847 5847 5848 5848 5848 5848 5848 5848 5848 5848 5848 5848 5847 5847 5847 5848 5848 5848 5847 5847 5847 5846 5846 5845 5845 5844 5844 5847 5849 5848 5847 5845 5845 5845 5844 5843 5845 5845 5845 5845 5844 5844 5843 5842 5842 5841 5840 5839 5838 5837 5837 5836 5836 5835 5834 5833 5833 5833 5830 5829 5830 5827 5828 5832 5830 5829 5828 5827 5827 5822 5820 5826 5830 5828 5825 5825 5825 5825 5824 5823 5823 5821 5820 5819 5818 5817 5816 5816
5844 5844 5844 5844 5844 5844 5844 5844 5844 5844 5844 5844 5843 5842 5843 5844 5844 5844 5843 5843 5843 5842 5842 5841 5841 5840 5839 5843 5846 5844 5843 5842 5840 5840 5839 5840 5841 5841 5841 5840 5839 5839 5839 5838 5838 5837 5837 5835 5834 5833 5833 5833 5833 5831 5829 5828 5829 5829 5825 5824 5825 5821 5823 5826 5826 5825 5823 5821 5821 5818 5817 5820 5824 5825 5822 5820 5819 5820 5821 5821 5820 5819 5817 5815 5814 5813 5812 5811
5840 5840 5840 5840 5840 5840 5840 5840 5840 5840 5840 5840 5840 5838 5838 5839 5839 5840 5839 5840 5839 5839 5838 5837 5837 5836 5834 5839 5842 5840 5839 5838 5836 5836 5836 5836 5837 5837 5837 5836 5835 5835 5834 5834 5833 5833 5833 5831 5830 5829 5829 5831 5830 5827 5824 5824 5826 5825 5819 5818 5820 5817 5818 5819 5820 5821 5818 5815 5815 5813 5813 5815 5817 5819 5818 5816 5814 5814 5815 5816 5816 5815 5814 5812 5810 5810 5809 5807
5836 5836 5836 5836 5836 5836 5836 5836 5836 5836 5836 5836 5836 5835 5834 5834 5834 5834 5834 5835 5835 5835 5834 5832 5833 5831 5830 5834 5837 5837 5837 5834 5832 5833 5832 5832 5833 5834 5833 5832 5832 5831 5830 5830 5829 5829 5828 5826 5825 5825 5825 5827 5827 5823 5820 5820 5823 5821 5814 5812 5813 5814 5813 5813 5814 5814 5812 5809 5807 5806 5807 5810 5812 5812 5813 5813 5811 5809 5809 5810 5811 5811 5810 5808 5805 5805 5805 5804
5831 5831 5831 5831 5832 5832 5832 5832 5832 5832 5832 5832 5832 5831 5830 5829 5829 5829 5830 5831 5831 5831 5830 5828 5827 5826 5827 5830 5830 5831 5832 5831 5829 5829 5828 5829 5830 5829 5829 5829 5828 5827 5826 5825 5825 5825 5823 5822 5820 5821 5823 5824 5823 5820 5816 5816 5817 5815 5812 5808 5807 5808 5808 5809 5810 5807 5806 5803 5800 5799 5800 5804 5808 5807 5808 5809 5808 5806 5805 5805 5806 5806 5805 5804 5801 5800 5800 5799
5826 5826 5827 5827 5827 5827 5827 5827 5827 5827 5827 5827 5827 5826 5826 5824 5823 5823 5825 5826 5826 5826 5825 5823 5822 5822 5822 5824 5826 5826 5826 5826 5826 5825 5825 5826 5826 5825 5825 5825 5824 5823 5822 5821 5821 5819 5818 5817 5815 5817 5821 5822 5819 5815 5812 5811 5811 5809 5809 5806 5803 5803 5804 5807 5806 5800 5800 5797 5794 5794 5793 5795 5800 5802 5803 5805 5804 5802 5801 5801 5801 5801 5801 5800 5798 5796 5795 5794
5821 5821 5822 5822 5822 5822 5822 5822 5822 5822 5822 5822 5822 5821 5821 5820 5819 5818 5818 5820 5821 5821 5819 5817 5817 5818 5818 5819 5820 5820 5820 5821 5821 5822 5823 5822 5822 5821 5821 5820 5820 5819 5818 5818 5815 5813 5814 5811 5809 5815 5819 5818 5813 5810 5808 5807 5807 5806 5804 5803 5801 5799 5800 5805 5803 5796 5795 5791 5789 5791 5788 5787 5793 5796 5797 5799 5799 5798 5798 5797 5795 5797 5797 5796 5795 5793 5790 5788
5815 5816 5816 5816 5817 5817 5817 5817 5817 5817 5817 5817 5817 5816 5815 5815 5813 5812 5812 5813 5815 5815 5815 5813 5811 5812 5815 5814 5813 5815 5814 5814 5816 5818 5819 5818 5817 5817 5817 5817 5814 5814 5815 5813 5808 5807 5809 5805 5807 5814 5815 5812 5809 5806 5804 5802 5803 5801 5799 5798 5797 5796 5797 5800 5797 5793 5792 5786 5783 5786 5781 5780 5787 5791 5792 5794 5793 5793 5794 5792 5791 5793 5793 5792 5791 5788 5786 5785
5810 5810 5810 5811 5811 5811 5811 5812 5812 5812 5811 5811 5811 5811 5810 5809 5808 5806 5804 5804 5808 5811 5809 5809 5807 5805 5808 5808 5808 5810 5809 5809 5813 5814 5814 5813 5813 5813 5813 5811 5809 5810 5810 5805 5803 5804 5801 5799 5805 5811 5808 5806 5805 5803 5801 5799 5798 5796 5795 5792 5790 5793 5794 5792 5791 5789 5787 5782 5779 5780 5775 5774 5781 5785 5788 5789 5788 5787 5787 5788 5789 5789 5789 5789 5786 5783 5782 5782
5804 5804 5805 5805 5805 5805 5805 5806 5806 5806 5805 5805 5805 5805 5804 5804 5802 5801 5798 5795 5799 5804 5804 5804 5804 5801 5802 5802 5803 5804 5803 5806 5808 5809 5810 5809 5809 5809 5806 5805 5805 5805 5802 5799 5802 5800 5793 5794 5800 5803 5803 5801 5800 5799 5797 5795 5795 5793 5791 5787 5785 5790 5790 5785 5785 5783 5782 5778 5774 5774 5768 5767 5775 5780 5782 5785 5783 5782 5782 5783 5785 5786 5785 5784 5782 5779 5779 5779
5798 5799 5799 5799 5799 5799 5799 5800 5800 5800 5800 5800 5799 5798 5798 5798 5796 5795 5793 5789 5787 5793 5798 5800 5797 5795 5798 5797 5797 5798 5799 5802 5802 5803 5806 5805 5804 5803 5801 5800 5798 5797 5796 5796 5797 5793 5789 5790 5791 5795 5798 5797 5794 5793 5791 5791 5792 5789 5785 5784 5784 5787 5785 5781 5779 5776 5774 5773 5771 5769 5760 5758 5770 5775 5776 5780 5779 5778 5779 5779 5781 5781 5781 5780 5778 5777 5776 5774
5792 5793 5793 5793 5793 5793 5793 5794 5794 5794 5794 5794 5792 5792 5792 5791 5790 5789 5787 5784 5778 5781 5790 5793 5790 5789 5792 5793 5793 5796 5794 5795 5796 5799 5801 5800 5799 5798 5796 5795 5791 5789 5792 5792 5789 5785 5784 5785 5786 5790 5791 5790 5789 5787 5786 5786 5787 5784 5780 5781 5782 5782 5780 5777 5776 5771 5766 5766 5766 5764 5755 5750 5762 5770 5771 5773 5774 5775 5776 5776 5777 5777 5777 5776 5774 5773 5772 5770
5786 5786 5787 5787 5787 5787 5787 5787 5788 5788 5787 5787 5786 5785 5785 5784 5784 5782 5782 5779 5771 5770 5778 5783 5784 5784 5787 5790 5791 5791 5789 5790 5793 5795 5794 5793 5793 5792 5790 5789 5787 5786 5786 5786 5783 5778 5777 5780 5783 5785 5784 5784 5782 5780 5783 5783 5780 5777 5775 5777 5778 5777 5775 5773 5772 5767 5761 5760 5759 5756 5752 5746 5751 5761 5766 5766 5768 5770 5771 5772 5773 5773 5772 5771 5770 5769 5767 5766
5779 5780 5780 5780 5781 5781 5781 5781 5781 5781 5781 5780 5779 5779 5779 5778 5778 5777 5777 5772 5763 5761 5766 5770 5775 5779 5783 5787 5788 5786 5784 5787 5790 5789 5788 5788 5787 5786 5784 5783 5783 5782 5781 5779 5774 5772 5774 5776 5777 5779 5778 5777 5775 5776 5779 5778 5773 5771 5771 5773 5772 5771 5770 5768 5767 5764 5758 5757 5752 5748 5750 5746 5741 5750 5758 5758 5759 5762 5765 5767 5768 5768 5768 5766 5765 5762 5760 5760
5773 5773 5773 5774 5774 5774 5775 5775 5774 5775 5775 5774 5774 5773 5772 5773 5773 5772 5772 5765 5753 5754 5758 5760 5766 5773 5777 5780 5781 5782 5781 5783 5784 5782 5783 5782 5780 5780 5779 5779 5778 5776 5776 5773 5768 5770 5771 5770 5771 5772 5771 5770 5771 5772 5773 5771 5768 5767 5766 5766 5765 5765 5764 5762 5761 5759 5756 5751 5744 5743 5749 5747 5737 5740 5748 5746 5748 5754 5758 5761 5762 5763 5764 5763 5761 5757 5753 5753
5766 5767 5767 5768 5768 5768 5768 5768 5768 5768 5768 5768 5768 5767 5767 5767 5766 5767 5766 5754 5744 5747 5754 5758 5760 5764 5768 5771 5773 5776 5777 5777 5776 5775 5776 5775 5774 5774 5773 5773 5772 5769 5768 5767 5766 5767 5766 5765 5766 5765 5764 5765 5766 5766 5766 5764 5762 5762 5762 5759 5759 5758 5757 5757 5754 5753 5752 5744 5737 5740 5746 5744 5733 5734 5740 5738 5740 5746 5748 5752 5754 5755 5759 5759 5758 5754 5748 5746
5760 5760 5760 5761 5762 5761 5761 5762 5761 5761 5762 5762 5761 5761 5762 5761 5761 5761 5753 5742 5740 5746 5752 5755 5756 5756 5759 5763 5764 5766 5769 5769 5770 5770 5769 5768 5768 5767 5766 5766 5766 5764 5763 5760 5760 5763 5762 5760 5759 5758 5759 5760 5759 5759 5759 5758 5756 5756 5756 5754 5753 5752 5750 5750 5747 5746 5743 5736 5735 5739 5742 5740 5728 5723 5730 5733 5736 5739 5740 5743 5744 5745 5750 5753 5754 5750 5746 5742
5752 5753 5753 5755 5756 5755 5756 5756 5755 5755 5756 5755 5755 5755 5754 5754 5755 5750 5740 5737 5742 5745 5747 5749 5749 5751 5753 5754 5755 5756 5758 5761 5763 5763 5763 5762 5761 5760 5759 5758 5758 5758 5757 5755 5755 5758 5757 5754 5754 5754 5754 5753 5752 5753 5752 5752 5751 5751 5750 5748 5747 5746 5743 5741 5739 5739 5735 5730 5735 5738 5737 5735 5722 5716 5724 5728 5729 5731 5733 5733 5732 5735 5742 5746 5747 5745 5742 5741
5745 5745 5746 5747 5748 5749 5749 5750 5749 5750 5749 5749 5748 5747 5748 5748 5745 5739 5735 5740 5741 5738 5742 5745 5744 5746 5746 5746 5746 5747 5748 5750 5753 5755 5755 5755 5755 5754 5753 5752 5752 5750 5749 5750 5750 5750 5748 5748 5749 5748 5748 5749 5748 5747 5746 5745 5746 5745 5744 5743 5741 5738 5735 5732 5731 5731 5729 5729 5733 5733 5730 5722 5712 5713 5722 5724 5724 5725 5726 5725 5720 5724 5732 5738 5741 5740 5738 5737
5738 5738 5739 5740 5742 5742 5743 5743 5743 5743 5743 5743 5741 5740 5742 5739 5735 5734 5735 5739 5737 5733 5737 5740 5738 5739 5739 5739 5740 5739 5740 5740 5742 5745 5745 5746 5746 5747 5747 5746 5746 5745 5744 5744 5743 5740 5739 5741 5742 5741 5743 5745 5742 5740 5740 5739 5740 5738 5737 5736 5734 5732 5727 5724 5726 5725 5723 5726 5728 5726 5720 5710 5705 5711 5718 5721 5723 5720 5719 5721 5717 5716 5722 5729 5734 5734 5732 5731
5731 5731 5732 5734 5735 5735 5737 5737 5736 5736 5736 5735 5733 5732 5733 5729 5729 5732 5732 5733 5733 5730 5730 5732 5732 5733 5732 5732 5731 5731 5732 5732 5733 5734 5734 5736 5736 5738 5740 5741 5740 5740 5739 5737 5735 5734 5732 5733 5736 5735 5737 5738 5735 5735 5734 5732 5732 5730 5730 5728 5725 5725 5722 5719 5723 5721 5717 5719 5719 5715 5708 5703 5703 5708 5711 5713 5714 5713 5713 5715 5715 5713 5715 5720 5725 5727 5725 5724
5723 5724 5724 5726 5728 5730 5731 5730 5729 5730 5728 5725 5722 5721 5723 5723 5726 5728 5726 5727 5727 5725 5725 5726 5726 5725 5724 5725 5724 5725 5726 5723 5724 5724 5723 5724 5725 5728 5730 5732 5734 5734 5732 5730 5730 5729 5726 5726 5729 5726 5726 5730 5729 5729 5728 5725 5724 5723 5722 5719 5717 5720 5719 5716 5717 5717 5713 5710 5707 5703 5699 5699 5702 5704 5706 5705 5702 5705 5707 5707 5709 5710 5711 5714 5718 5720 5719 5717
5715 5716 5717 5719 5722 5724 5723 5723 5723 5722 5721 5717 5710 5710 5717 5721 5722 5721 5719 5721 5720 5718 5718 5719 5719 5717 5716 5717 5718 5720 5720 5717 5717 5715 5714 5715 5715 5718 5720 5721 5725 5726 5725 5724 5723 5722 5719 5719 5723 5719 5717 5721 5721 5721 5721 5718 5717 5716 5713 5712 5714 5716 5714 5709 5707 5710 5708 5701 5698 5698 5693 5694 5699 5697 5699 5701 5698 5700 5701 5699 5700 5702 5704 5709 5712 5713 5712 5710
5706 5707 5708 5713 5716 5715 5714 5715 5714 5712 5713 5708 5699 5703 5714 5716 5716 5714 5713 5715 5714 5711 5709 5709 5712 5712 5710 5710 5710 5712 5712 5710 5710 5707 5707 5708 5706 5710 5712 5711 5713 5715 5716 5717 5714 5714 5711 5710 5715 5714 5710 5712 5712 5712 5713 5711 5709 5708 5708 5710 5711 5708 5704 5701 5698 5700 5701 5694 5691 5694 5690 5689 5694 5690 5690 5694 5694 5695 5696 5694 5694 5695 5698 5701 5704 5705 5705 5703
5697 5696 5699 5708 5709 5705 5704 5705 5703 5702 5702 5695 5689 5698 5708 5708 5710 5708 5706 5709 5707 5703 5701 5701 5703 5704 5703 5703 5703 5703 5701 5700 5702 5701 5700 5701 5699 5702 5705 5704 5704 5705 5708 5709 5704 5704 5703 5699 5705 5709 5704 5703 5705 5704 5703 5702 5701 5702 5705 5706 5703 5698 5695 5693 5690 5691 5693 5688 5684 5688 5688 5686 5687 5687 5685 5686 5685 5686 5687 5687 5687 5689 5691 5693 5696 5697 5695 5695
5687 5685 5690 5701 5700 5694 5695 5694 5690 5689 5687 5682 5682 5692 5700 5702 5703 5700 5698 5701 5700 5696 5694 5694 5695 5694 5693 5697 5697 5695 5693 5691 5693 5692 5692 5694 5692 5694 5698 5697 5697 5697 5700 5701 5697 5697 5696 5688 5691 5699 5698 5696 5698 5697 5695 5696 5697 5697 5697 5697 5695 5692 5687 5684 5683 5684 5683 5680 5678 5682 5684 5681 5681 5683 5683 5681 5680 5678 5678 5679 5680 5681 5680 5682 5686 5688 5687 5687
5677 5673 5679 5692 5690 5683 5686 5684 5678 5675 5672 5672 5677 5684 5691 5692 5692 5692 5691 5691 5690 5689 5688 5687 5687 5684 5684 5688 5689 5688 5686 5684 5684 5683 5682 5685 5686 5686 5688 5688 5689 5690 5691 5691 5689 5689 5688 5680 5678 5686 5690 5688 5690 5691 5690 5692 5692 5688 5686 5687 5686 5685 5681 5676 5675 5677 5676 5672 5672 5675 5676 5674 5674 5676 5676 5675 5675 5674 5674 5677 5678 5676 5673 5673 5677 5679 5678 5678
5667 5662 5668 5681 5679 5674 5676 5670 5665 5665 5661 5664 5671 5676 5679 5680 5681 5684 5683 5681 5680 5680 5680 5679 5677 5676 5677 5678 5679 5680 5679 5675 5676 5676 5673 5677 5679 5678 5679 5680 5680 5681 5680 5679 5680 5681 5679 5673 5669 5671 5675 5679 5683 5686 5686 5685 5682 5678 5676 5677 5678 5677 5674 5669 5665 5670 5670 5663 5664 5667 5664 5663 5665 5666 5668 5669 5668 5669 5672 5674 5674 5673 5670 5669 5671 5671 5669 5669
5656 5652 5660 5670 5667 5664 5664 5656 5653 5655 5652 5655 5663 5665 5666 5669 5672 5675 5674 5673 5671 5671 5671 5669 5669 5670 5670 5670 5670 5671 5670 5666 5666 5667 5666 5669 5671 5670 5672 5673 5671 5670 5669 5667 5669 5672 5670 5664 5658 5658 5662 5669 5675 5678 5677 5673 5671 5668 5664 5668 5671 5669 5668 5663 5657 5663 5663 5654 5657 5659 5648 5649 5659 5662 5664 5665 5661 5659 5661 5664 5668 5667 5663 5661 5661 5662 5663 5662
5645 5645 5650 5656 5654 5654 5652 5644 5642 5644 5642 5647 5652 5652 5654 5657 5661 5666 5667 5666 5662 5661 5661 5660 5661 5662 5661 5662 5662 5660 5660 5658 5656 5659 5659 5659 5662 5665 5666 5666 5664 5662 5660 5657 5658 5661 5659 5652 5649 5649 5651 5655 5662 5666 5665 5662 5659 5655 5656 5663 5665 5660 5660 5657 5651 5655 5652 5644 5650 5646 5628 5635 5655 5660 5660 5661 5657 5653 5653 5654 5657 5658 5655 5651 5648 5650 5653 5653
5635 5636 5637 5641 5644 5643 5638 5633 5635 5634 5634 5639 5639 5641 5645 5646 5647 5655 5659 5658 5655 5652 5651 5651 5653 5653 5651 5653 5652 5651 5652 5648 5646 5651 5652 5650 5654 5659 5660 5660 5658 5655 5652 5651 5649 5647 5646 5642 5640 5640 5638 5640 5647 5653 5653 5653 5650 5646 5650 5656 5655 5651 5650 5646 5643 5643 5635 5633 5642 5631 5613 5627 5653 5655 5651 5653 5652 5651 5652 5650 5648 5649 5648 5643 5639 5641 5643 5642
5625 5624 5625 5629 5630 5628 5626 5628 5629 5625 5624 5628 5627 5630 5636 5633 5636 5646 5649 5648 5647 5644 5641 5641 5643 5643 5642 5642 5640 5642 5644 5640 5636 5640 5643 5643 5646 5652 5654 5653 5652 5648 5645 5644 5641 5637 5634 5632 5630 5629 5626 5626 5634 5642 5647 5646 5640 5638 5641 5644 5643 5642 5639 5635 5634 5628 5620 5624 5630 5618 5608 5623 5644 5647 5644 5646 5646 5645 5647 5646 5642 5641 5640 5637 5635 5633 5632 5632
5614 5612 5615 5619 5617 5614 5615 5620 5621 5615 5614 5617 5615 5617 5623 5622 5627 5637 5638 5635 5637 5638 5634 5630 5631 5631 5632 5634 5633 5631 5635 5634 5630 5627 5630 5634 5637 5642 5645 5644 5643 5641 5637 5635 5634 5629 5623 5620 5621 5619 5616 5617 5622 5631 5639 5637 5628 5626 5630 5632 5632 5631 5629 5627 5622 5614 5615 5617 5612 5609 5612 5615 5625 5637 5641 5642 5642 5639 5638 5639 5636 5635 5634 5632 5629 5624 5623 5624
5602 5601 5605 5607 5604 5602 5603 5607 5610 5607 5606 5607 5603 5604 5611 5614 5617 5624 5625 5624 5628 5631 5625 5618 5618 5620 5622 5628 5626 5621 5624 5626 5621 5618 5619 5623 5627 5630 5632 5632 5631 5631 5629 5627 5624 5620 5610 5606 5611 5610 5606 5608 5611 5616 5625 5625 5619 5618 5619 5620 5621 5621 5620 5617 5610 5608 5614 5608 5593 5601 5612 5605 5609 5625 5631 5632 5634 5631 5629 5630 5630 5630 5629 5626 5621 5617 5615 5614
5591 5590 5594 5594 5589 5590 5593 5595 5599 5598 5596 5595 5592 5593 5599 5603 5605 5609 5614 5617 5618 5618 5612 5606 5608 5612 5614 5619 5616 5610 5612 5613 5610 5611 5613 5613 5616 5618 5617 5618 5619 5619 5620 5616 5612 5610 5600 5594 5600 5601 5597 5599 5602 5603 5609 5612 5610 5610 5608 5607 5610 5610 5608 5605 5601 5605 5609 5595 5584 5596 5604 5598 5601 5612 5616 5619 5623 5620 5618 5619 5620 5621 5620 5619 5616 5611 5608 5606
5581 5579 5581 5582 5576 5576 5583 5586 5587 5586 5585 5584 5582 5581 5585 5590 5595 5599 5605 5606 5602 5602 5601 5596 5599 5604 5606 5608 5605 5597 5599 5601 5600 5605 5609 5606 5605 5605 5603 5604 5607 5608 5607 5603 5601 5600 5592 5586 5592 5594 5588 5589 5592 5593 5596 5598 5597 5598 5599 5599 5599 5598 5597 5597 5595 5598 5596 5585 5582 5591 5591 5587 5595 5603 5605 5608 5608 5606 5607 5609 5610 5611 5610 5610 5608 5602 5599 5597
5571 5567 5568 5569 5565 5566 5572 5576 5576 5574 5574 5574 5571 5571 5575 5577 5581 5588 5593 5592 5588 5590 5591 5588 5590 5596 5595 5594 5591 5584 5587 5593 5591 5596 5602 5596 5591 5592 5591 5590 5595 5596 5592 5591 5592 5590 5585 5581 5584 5585 5577 5575 5581 5585 5585 5585 5584 5584 5587 5590 5590 5588 5588 5590 5590 5589 5585 5577 5579 5582 5573 5572 5587 5596 5595 5594 5594 5593 5596 5599 5601 5602 5599 5598 5596 5591 5587 5585
5560 5557 5556 5555 5554 5557 5561 5564 5565 5561 5560 5563 5563 5564 5567 5566 5569 5574 5575 5576 5577 5578 5579 5579 5581 5584 5582 5579 5577 5575 5580 5584 5580 5582 5588 5582 5577 5580 5578 5577 5583 5583 5579 5580 5581 5579 5576 5573 5576 5576 5564 5560 5573 5577 5573 5575 5573 5567 5570 5580 5585 5584 5582 5582 5582 5581 5577 5572 5572 5569 5561 5563 5579 5586 5582 5581 5584 5585 5587 5590 5589 5587 5587 5586 5584 5579 5576 5575
5547 5545 5546 5541 5540 5549 5554 5552 5552 5549 5548 5554 5557 5556 5556 5556 5561 5563 5558 5559 5566 5567 5568 5570 5570 5569 5568 5567 5567 5569 5571 5570 5567 5568 5571 5569 5566 5568 5567 5566 5569 5569 5567 5569 5568 5566 5566 5563 5565 5565 5552 5549 5563 5567 5563 5563 5553 5543 5556 5575 5582 5581 5578 5574 5571 5572 5573 5571 5564 5558 5557 5563 5569 5570 5568 5571 5576 5578 5580 5581 5577 5573 5574 5574 5571 5567 5566 5566